Time,TemperatureF,DewpointF,PressureIn,WindDirection,WindDirectionDegrees,WindSpeedMPH,WindSpeedGustMPH,Humidity,HourlyPrecipIn,Conditions,Clouds,dailyrainin,SoftwareType,DateUTC
2013-03-06 00:02:00,-999.0,-99.9,29.98,NNE,33,4.0,6.0,-999,-99.99,,,-99.99,,2013-03-06 09:02:00,
2013-03-06 00:12:00,-999.0,-99.9,29.99,SSW,198,0.0,3.0,-999,-99.99,,,-99.99,,2013-03-06 09:12:00,
2013-03-06 00:22:00,30.0,-99.9,29.98,NNE,19,4.0,6.0,-999,-99.99,,,-99.99,,2013-03-06 09:22:00,
2013-03-06 00:32:00,-999.0,-99.9,29.98,NNE,14,6.0,9.0,-999,-99.99,,,-99.99,,2013-03-06 09:32:00,
2013-03-06 00:42:00,27.0,-99.9,29.98,NNE,27,3.0,7.0,-999,-99.99,,,-99.99,,2013-03-06 09:42:00,
2013-03-06 00:52:00,-999.0,-99.9,29.98,NE,43,3.0,4.0,-999,-99.99,,,-99.99,,2013-03-06 09:52:00,
2013-03-06 01:02:00,-999.0,-99.9,29.97,NE,52,2.0,5.0,-999,-99.99,,,-99.99,,2013-03-06 10:02:00,
2013-03-06 01:11:00,-999.0,-99.9,29.97,East,88,2.0,4.0,-999,-99.99,,,-99.99,,2013-03-06 10:11:00,
2013-03-06 01:22:00,27.0,-99.9,29.97,East,99,1.0,5.0,-999,-99.99,,,-99.99,,2013-03-06 10:22:00,
2013-03-06 01:32:00,-999.0,-99.9,29.97,ENE,61,3.0,4.0,-999,-99.99,,,-99.99,,2013-03-06 10:32:00,
2013-03-06 01:42:00,-999.0,-99.9,29.97,NE,54,3.0,5.0,-999,-99.99,,,-99.99,,2013-03-06 10:42:00,
2013-03-06 01:52:00,28.0,-99.9,29.97,ENE,58,3.0,6.0,-999,-99.99,,,-99.99,,2013-03-06 10:52:00,
2013-03-06 02:02:00,-999.0,-99.9,29.97,ENE,70,4.0,5.0,-999,-99.99,,,-99.99,,2013-03-06 11:02:00,
2013-03-06 02:11:00,27.0,-99.9,29.97,ENE,70,5.0,6.0,-999,-99.99,,,-99.99,,2013-03-06 11:11:00,
2013-03-06 02:23:00,-999.0,-99.9,29.97,ENE,69,3.0,6.0,-999,-99.99,,,-99.99,,2013-03-06 11:23:00,
2013-03-06 02:32:00,-999.0,-99.9,29.96,ENE,73,4.0,6.0,-999,-99.99,,,-99.99,,2013-03-06 11:32:00,
2013-03-06 02:43:00,-999.0,-99.9,29.96,ENE,68,5.0,8.0,-999,-99.99,,,-99.99,,2013-03-06 11:43:00,
2013-03-06 02:52:00,28.0,-99.9,29.96,ENE,68,6.0,8.0,-999,-99.99,,,-99.99,,2013-03-06 11:52:00,
2013-03-06 03:02:00,-999.0,-99.9,29.96,ENE,72,6.0,8.0,-999,-99.99,,,-99.99,,2013-03-06 12:02:00,
2013-03-06 03:12:00,-999.0,-99.9,29.96,ENE,70,7.0,9.0,-999,-99.99,,,-99.99,,2013-03-06 12:12:00,
2013-03-06 03:22:00,28.0,-99.9,29.96,ENE,70,4.0,8.0,-999,-99.99,,,-99.99,,2013-03-06 12:22:00,
2013-03-06 03:33:00,-999.0,-99.9,29.96,ENE,71,5.0,8.0,-999,-99.99,,,-99.99,,2013-03-06 12:33:00,
2013-03-06 03:43:00,28.0,-99.9,29.96,ENE,63,6.0,9.0,-999,-99.99,,,-99.99,,2013-03-06 12:43:00,
2013-03-06 03:53:00,-999.0,-99.9,29.96,ENE,76,6.0,8.0,-999,-99.99,,,-99.99,,2013-03-06 12:53:00,
2013-03-06 04:02:00,-999.0,-99.9,29.96,ENE,77,5.0,7.0,-999,-99.99,,,-99.99,,2013-03-06 13:02:00,
2013-03-06 04:12:00,-999.0,-99.9,29.96,ENE,78,5.0,6.0,-999,-99.99,,,-99.99,,2013-03-06 13:12:00,
2013-03-06 04:22:00,-999.0,-99.9,29.96,East,80,6.0,7.0,-999,-99.99,,,-99.99,,2013-03-06 13:22:00,
2013-03-06 04:32:00,-999.0,-99.9,29.96,East,81,5.0,6.0,-999,-99.99,,,-99.99,,2013-03-06 13:32:00,
2013-03-06 04:42:00,-999.0,-99.9,29.96,East,87,6.0,7.0,-999,-99.99,,,-99.99,,2013-03-06 13:42:00,
2013-03-06 04:52:00,28.0,-99.9,29.96,East,86,6.0,7.0,-999,-99.99,,,-99.99,,2013-03-06 13:52:00,
2013-03-06 05:02:00,-999.0,-99.9,29.96,East,85,5.0,6.0,-999,-99.99,,,-99.99,,2013-03-06 14:02:00,
2013-03-06 05:11:00,28.0,-99.9,29.96,East,89,6.0,6.0,-999,-99.99,,,-99.99,,2013-03-06 14:11:00,
2013-03-06 05:22:00,-999.0,-99.9,29.95,ENE,77,5.0,6.0,-999,-99.99,,,-99.99,,2013-03-06 14:22:00,
2013-03-06 05:32:00,-999.0,-99.9,29.96,ENE,73,5.0,6.0,-999,-99.99,,,-99.99,,2013-03-06 14:32:00,
2013-03-06 05:42:00,-999.0,-99.9,29.95,ENE,74,5.0,6.0,-999,-99.99,,,-99.99,,2013-03-06 14:42:00,
2013-03-06 05:53:00,-999.0,-99.9,29.95,ENE,76,6.0,7.0,-999,-99.99,,,-99.99,,2013-03-06 14:53:00,
2013-03-06 06:02:00,-999.0,-99.9,29.95,ENE,57,5.0,7.0,-999,-99.99,,,-99.99,,2013-03-06 15:02:00,
2013-03-06 06:12:00,-999.0,-99.9,29.95,ENE,61,7.0,8.0,-999,-99.99,,,-99.99,,2013-03-06 15:12:00,
2013-03-06 06:22:00,28.0,-99.9,29.95,NE,55,5.0,7.0,-999,-99.99,,,-99.99,,2013-03-06 15:22:00,
2013-03-06 06:32:00,-999.0,-99.9,29.95,ENE,57,3.0,5.0,-999,-99.99,,,-99.99,,2013-03-06 15:32:00,
2013-03-06 06:42:00,-999.0,-99.9,29.95,East,79,3.0,5.0,-999,-99.99,,,-99.99,,2013-03-06 15:42:00,
2013-03-06 06:52:00,28.0,-99.9,29.94,ENE,72,5.0,8.0,-999,-99.99,,,-99.99,,2013-03-06 15:52:00,
2013-03-06 07:02:00,-999.0,-99.9,29.94,NE,50,7.0,8.0,-999,-99.99,,,-99.99,,2013-03-06 16:02:00,
2013-03-06 07:12:00,28.0,-99.9,29.94,NE,53,7.0,8.0,-999,-99.99,,,-99.99,,2013-03-06 16:12:00,
2013-03-06 07:22:00,-999.0,-99.9,29.94,NE,50,7.0,9.0,-999,-99.99,,,-99.99,,2013-03-06 16:22:00,
2013-03-06 07:32:00,-999.0,-99.9,29.93,NE,47,6.0,8.0,-999,-99.99,,,-99.99,,2013-03-06 16:32:00,
2013-03-06 07:42:00,-999.0,-99.9,29.93,NE,37,6.0,8.0,-999,-99.99,,,-99.99,,2013-03-06 16:42:00,
2013-03-06 07:52:00,28.0,-99.9,29.93,NE,44,6.0,8.0,-999,-99.99,,,-99.99,,2013-03-06 16:52:00,
2013-03-06 08:01:00,-999.0,-99.9,29.93,NE,34,2.0,5.0,-999,-99.99,,,-99.99,,2013-03-06 17:01:00,
2013-03-06 08:11:00,-999.0,-99.9,29.94,NNE,22,4.0,6.0,-999,-99.99,,,-99.99,,2013-03-06 17:11:00,
2013-03-06 08:22:00,29.0,-99.9,29.94,NNE,20,5.0,8.0,-999,-99.99,,,-99.99,,2013-03-06 17:22:00,
2013-03-06 08:32:00,-999.0,-99.9,29.93,NE,37,4.0,6.0,-999,-99.99,,,-99.99,,2013-03-06 17:32:00,
2013-03-06 08:42:00,29.0,-99.9,29.93,NE,44,6.0,8.0,-999,-99.99,,,-99.99,,2013-03-06 17:42:00,
2013-03-06 08:53:00,-999.0,-99.9,29.93,NE,48,6.0,8.0,-999,-99.99,,,-99.99,,2013-03-06 17:53:00,
2013-03-06 09:02:00,-999.0,-99.9,29.93,NE,35,4.0,7.0,-999,-99.99,,,-99.99,,2013-03-06 18:02:00,
2013-03-06 09:29:00,-999.0,-99.9,29.93,NE,42,6.0,9.0,-999,-99.99,,,-99.99,,2013-03-06 18:29:00,
2013-03-06 09:42:00,-999.0,-99.9,29.93,NE,52,10.0,13.0,-999,-99.99,,,-99.99,,2013-03-06 18:42:00,
2013-03-06 09:53:00,29.0,-99.9,29.93,ENE,60,9.0,11.0,-999,-99.99,,,-99.99,,2013-03-06 18:53:00,
2013-03-06 10:02:00,-999.0,-99.9,29.94,NE,50,8.0,11.0,-999,-99.99,,,-99.99,,2013-03-06 19:02:00,
2013-03-06 10:11:00,29.0,-99.9,29.94,NE,47,9.0,12.0,-999,-99.99,,,-99.99,,2013-03-06 19:11:00,
2013-03-06 10:22:00,-999.0,-99.9,29.93,NE,53,10.0,13.0,-999,-99.99,,,-99.99,,2013-03-06 19:22:00,
2013-03-06 10:33:00,-999.0,-99.9,29.94,NE,54,7.0,11.0,-999,-99.99,,,-99.99,,2013-03-06 19:33:00,
2013-03-06 10:43:00,-999.0,-99.9,29.94,NE,46,7.0,11.0,-999,-99.99,,,-99.99,,2013-03-06 19:43:00,
2013-03-06 10:53:00,-999.0,-99.9,29.94,NE,54,6.0,10.0,-999,-99.99,,,-99.99,,2013-03-06 19:53:00,
2013-03-06 11:02:00,-999.0,-99.9,29.95,ENE,58,8.0,10.0,-999,-99.99,,,-99.99,,2013-03-06 20:02:00,
2013-03-06 11:12:00,-999.0,-99.9,29.94,NE,51,10.0,11.0,-999,-99.99,,,-99.99,,2013-03-06 20:12:00,
2013-03-06 11:23:00,30.0,-99.9,29.94,NE,56,10.0,12.0,-999,-99.99,,,-99.99,,2013-03-06 20:23:00,
2013-03-06 11:33:00,-999.0,-99.9,29.95,NE,48,9.0,13.0,-999,-99.99,,,-99.99,,2013-03-06 20:33:00,
2013-03-06 11:43:00,30.0,-99.9,29.95,NE,56,11.0,14.0,-999,-99.99,,,-99.99,,2013-03-06 20:43:00,
2013-03-06 11:53:00,-999.0,-99.9,29.95,NE,55,8.0,11.0,-999,-99.99,,,-99.99,,2013-03-06 20:53:00,
2013-03-06 12:02:00,-999.0,-99.9,29.95,NE,54,9.0,12.0,-999,-99.99,,,-99.99,,2013-03-06 21:02:00,
2013-03-06 12:12:00,-999.0,-99.9,29.96,NE,48,8.0,12.0,-999,-99.99,,,-99.99,,2013-03-06 21:12:00,
2013-03-06 12:22:00,-999.0,-99.9,29.96,NE,52,11.0,15.0,-999,-99.99,,,-99.99,,2013-03-06 21:22:00,
2013-03-06 12:33:00,-999.0,-99.9,29.95,NE,48,12.0,15.0,-999,-99.99,,,-99.99,,2013-03-06 21:33:00,
2013-03-06 12:43:00,-999.0,-99.9,29.95,NE,50,12.0,15.0,-999,-99.99,,,-99.99,,2013-03-06 21:43:00,
2013-03-06 12:52:00,30.0,-99.9,29.95,ENE,63,14.0,16.0,-999,-99.99,,,-99.99,,2013-03-06 21:52:00,
2013-03-06 13:02:00,-999.0,-99.9,29.94,ENE,68,14.0,19.0,-999,-99.99,,,-99.99,,2013-03-06 22:02:00,
2013-03-06 13:12:00,-999.0,-99.9,29.93,ENE,67,17.0,21.0,-999,-99.99,,,-99.99,,2013-03-06 22:12:00,
2013-03-06 13:22:00,30.0,-99.9,29.93,ENE,62,17.0,20.0,-999,-99.99,,,-99.99,,2013-03-06 22:22:00,
2013-03-06 13:32:00,-999.0,-99.9,29.93,ENE,62,16.0,19.0,-999,-99.99,,,-99.99,,2013-03-06 22:32:00,
2013-03-06 13:42:00,31.0,-99.9,29.93,ENE,62,15.0,18.0,-999,-99.99,,,-99.99,,2013-03-06 22:42:00,
2013-03-06 13:52:00,-999.0,-99.9,29.93,ENE,62,16.0,19.0,-999,-99.99,,,-99.99,,2013-03-06 22:52:00,
2013-03-06 14:02:00,-999.0,-99.9,29.93,ENE,61,15.0,18.0,-999,-99.99,,,-99.99,,2013-03-06 23:02:00,
2013-03-06 14:11:00,-999.0,-99.9,29.93,ENE,63,14.0,19.0,-999,-99.99,,,-99.99,,2013-03-06 23:11:00,
2013-03-06 14:22:00,31.0,-99.9,29.93,ENE,63,15.0,19.0,-999,-99.99,,,-99.99,,2013-03-06 23:22:00,
2013-03-06 14:32:00,-999.0,-99.9,29.93,ENE,64,14.0,18.0,-999,-99.99,,,-99.99,,2013-03-06 23:32:00,
2013-03-06 14:42:00,-999.0,-99.9,29.93,ENE,67,12.0,17.0,-999,-99.99,,,-99.99,,2013-03-06 23:42:00,
2013-03-06 14:52:00,31.0,-99.9,29.93,ENE,67,12.0,16.0,-999,-99.99,,,-99.99,,2013-03-06 23:52:00,
2013-03-06 15:02:00,-999.0,-99.9,29.93,ENE,64,16.0,19.0,-999,-99.99,,,-99.99,,2013-03-07 00:02:00,
2013-03-06 15:11:00,31.0,-99.9,29.93,ENE,61,16.0,18.0,-999,-99.99,,,-99.99,,2013-03-07 00:11:00,
2013-03-06 15:22:00,-999.0,-99.9,29.93,ENE,62,12.0,16.0,-999,-99.99,,,-99.99,,2013-03-07 00:22:00,
2013-03-06 15:32:00,-999.0,-99.9,29.92,ENE,63,16.0,19.0,-999,-99.99,,,-99.99,,2013-03-07 00:32:00,
2013-03-06 15:42:00,-999.0,-99.9,29.91,ENE,70,15.0,19.0,-999,-99.99,,,-99.99,,2013-03-07 00:42:00,
2013-03-06 15:52:00,31.0,-99.9,29.91,ENE,69,15.0,20.0,-999,-99.99,,,-99.99,,2013-03-07 00:52:00,
2013-03-06 16:02:00,-999.0,-99.9,29.90,ENE,59,17.0,18.0,-999,-99.99,,,-99.99,,2013-03-07 01:02:00,
2013-03-06 16:12:00,-999.0,-99.9,29.90,ENE,59,15.0,19.0,-999,-99.99,,,-99.99,,2013-03-07 01:12:00,
2013-03-06 16:22:00,32.0,-99.9,29.90,NE,55,15.0,19.0,-999,-99.99,,,-99.99,,2013-03-07 01:22:00,
2013-03-06 16:32:00,33.0,-99.9,29.89,ENE,58,15.0,20.0,-999,-99.99,,,-99.99,,2013-03-07 01:32:00,
2013-03-06 16:42:00,32.0,-99.9,29.89,ENE,65,18.0,22.0,-999,-99.99,,,-99.99,,2013-03-07 01:42:00,
2013-03-06 16:52:00,-999.0,-99.9,29.89,ENE,59,18.0,23.0,-999,-99.99,,,-99.99,,2013-03-07 01:52:00,
2013-03-06 17:01:00,-999.0,-99.9,29.90,ENE,60,13.0,21.0,-999,-99.99,,,-99.99,,2013-03-07 02:01:00,
2013-03-06 17:11:00,32.0,-99.9,29.90,ENE,63,14.0,18.0,-999,-99.99,,,-99.99,,2013-03-07 02:11:00,
2013-03-06 17:22:00,32.0,-99.9,29.90,ENE,60,13.0,18.0,-999,-99.99,,,-99.99,,2013-03-07 02:22:00,
2013-03-06 17:32:00,33.0,-99.9,29.90,NE,49,12.0,18.0,-999,-99.99,,,-99.99,,2013-03-07 02:32:00,
2013-03-06 17:42:00,33.0,-99.9,29.90,NE,49,12.0,18.0,-999,-99.99,,,-99.99,,2013-03-07 02:42:00,
2013-03-06 17:52:00,33.0,-99.9,29.90,NE,49,12.0,18.0,-999,-99.99,,,-99.99,,2013-03-07 02:52:00,
2013-03-06 18:02:00,33.0,-99.9,29.88,NE,54,16.0,19.0,-999,-99.99,,,-99.99,,2013-03-07 03:02:00,
2013-03-06 18:12:00,33.0,-99.9,29.88,NE,55,13.0,19.0,-999,-99.99,,,-99.99,,2013-03-07 03:12:00,
2013-03-06 18:22:00,33.0,-99.9,29.88,ENE,58,13.0,22.0,-999,-99.99,,,-99.99,,2013-03-07 03:22:00,
2013-03-06 18:32:00,33.0,-99.9,29.88,NE,56,14.0,19.0,-999,-99.99,,,-99.99,,2013-03-07 03:32:00,
2013-03-06 18:42:00,33.0,-99.9,29.87,NE,54,13.0,19.0,-999,-99.99,,,-99.99,,2013-03-07 03:42:00,
2013-03-06 18:52:00,33.0,-99.9,29.87,NE,53,13.0,19.0,-999,-99.99,,,-99.99,,2013-03-07 03:52:00,
2013-03-06 19:02:00,33.0,-99.9,29.87,NE,55,14.0,19.0,-999,-99.99,,,-99.99,,2013-03-07 04:02:00,
2013-03-06 19:12:00,33.0,-99.9,29.86,ENE,58,15.0,19.0,-999,-99.99,,,-99.99,,2013-03-07 04:12:00,
2013-03-06 19:22:00,33.0,-99.9,29.86,ENE,57,14.0,20.0,-999,-99.99,,,-99.99,,2013-03-07 04:22:00,
2013-03-06 19:32:00,33.0,-99.9,29.86,ENE,58,17.0,22.0,-999,-99.99,,,-99.99,,2013-03-07 04:32:00,
2013-03-06 19:42:00,33.0,-99.9,29.86,ENE,61,16.0,23.0,-999,-99.99,,,-99.99,,2013-03-07 04:42:00,
2013-03-06 19:52:00,-999.0,-99.9,29.87,ENE,63,16.0,19.0,-999,-99.99,,,-99.99,,2013-03-07 04:52:00,
2013-03-06 20:02:00,-999.0,-99.9,29.87,ENE,61,17.0,22.0,-999,-99.99,,,-99.99,,2013-03-07 05:02:00,
2013-03-06 20:12:00,-999.0,-99.9,29.86,ENE,62,16.0,21.0,-999,-99.99,,,-99.99,,2013-03-07 05:12:00,
2013-03-06 20:23:00,-999.0,-99.9,29.86,ENE,61,18.0,23.0,-999,-99.99,,,-99.99,,2013-03-07 05:23:00,
2013-03-06 20:32:00,-999.0,-99.9,29.86,ENE,62,15.0,20.0,-999,-99.99,,,-99.99,,2013-03-07 05:32:00,
2013-03-06 20:42:00,-999.0,-99.9,29.86,ENE,64,15.0,19.0,-999,-99.99,,,-99.99,,2013-03-07 05:42:00,
2013-03-06 20:53:00,32.0,-99.9,29.85,ENE,60,15.0,20.0,-999,-99.99,,,-99.99,,2013-03-07 05:53:00,
2013-03-06 21:02:00,-999.0,-99.9,29.85,ENE,62,14.0,21.0,-999,-99.99,,,-99.99,,2013-03-07 06:02:00,
2013-03-06 21:11:00,-999.0,-99.9,29.85,ENE,61,16.0,20.0,-999,-99.99,,,-99.99,,2013-03-07 06:11:00,
2013-03-06 21:22:00,32.0,-99.9,29.85,ENE,60,15.0,21.0,-999,-99.99,,,-99.99,,2013-03-07 06:22:00,
2013-03-06 21:32:00,-999.0,-99.9,29.85,ENE,57,16.0,22.0,-999,-99.99,,,-99.99,,2013-03-07 06:32:00,
2013-03-06 21:42:00,32.0,-99.9,29.84,ENE,63,17.0,22.0,-999,-99.99,,,-99.99,,2013-03-07 06:42:00,
2013-03-06 21:52:00,-999.0,-99.9,29.84,ENE,59,16.0,20.0,-999,-99.99,,,-99.99,,2013-03-07 06:52:00,
2013-03-06 22:02:00,-999.0,-99.9,29.84,ENE,64,15.0,21.0,-999,-99.99,,,-99.99,,2013-03-07 07:02:00,
2013-03-06 22:11:00,-999.0,-99.9,29.84,ENE,64,16.0,21.0,-999,-99.99,,,-99.99,,2013-03-07 07:11:00,
2013-03-06 22:22:00,31.0,-99.9,29.84,ENE,66,15.0,22.0,-999,-99.99,,,-99.99,,2013-03-07 07:22:00,
2013-03-06 22:32:00,-999.0,-99.9,29.83,ENE,62,13.0,19.0,-999,-99.99,,,-99.99,,2013-03-07 07:32:00,
2013-03-06 22:43:00,-999.0,-99.9,29.83,ENE,62,15.0,18.0,-999,-99.99,,,-99.99,,2013-03-07 07:43:00,
2013-03-06 22:53:00,31.0,-99.9,29.83,ENE,64,15.0,19.0,-999,-99.99,,,-99.99,,2013-03-07 07:53:00,
2013-03-06 23:03:00,-999.0,-99.9,29.83,ENE,60,16.0,21.0,-999,-99.99,,,-99.99,,2013-03-07 08:03:00,
2013-03-06 23:12:00,31.0,-99.9,29.83,ENE,61,17.0,22.0,-999,-99.99,,,-99.99,,2013-03-07 08:12:00,
2013-03-06 23:34:00,-999.0,-99.9,29.83,NE,50,12.0,17.0,-999,-99.99,,,-99.99,,2013-03-07 08:34:00,
2013-03-06 23:45:00,-999.0,-99.9,29.83,NE,55,13.0,17.0,-999,-99.99,,,-99.99,,2013-03-07 08:45:00,
2013-03-06 23:54:00,-999.0,-99.9,29.83,NE,52,11.0,15.0,-999,-99.99,,,-99.99,,2013-03-07 08:54:00,